DECAYED

STARLINK-1630, 46132 (Decayed)

Orbit data source: Space-Track

STARLINK-1630, 46132 was a payload satellite owned by SpaceX/Seattle (US) in LEO that was launched on Tue, 18 Aug 2020 UTC via an FALCON 9 launch vehicle from the Air Force Eastern Test Range (AFETR). Payload-class satellites include a variety of spacecraft equipped with specific instruments for various scientific and technological missions. These include communications satellites like Starlink; space stations such as the ISS; scientific satellites like the Hubble; Earth observation satellites from companies like Planet Labs, Umbra, and HawkEye 360; GPS; miniature CubeSats for education and research; and military/defense satellites.

Not visible in the next 10 days
Identifier
46132, 2020-057R
Orbit
Decayed
Country
Flag of USUS
Related business
Manufacturer
SpaceX/Seattle
Mission
Decayed Commercial Communications
Bus & Motor
STARLINK, Unknown motor
Mass
260 kg wet, ~248 kg dry
Launch date (UTC)
2020-08-18 (6 years ago)
Launch vehicle
FALCON 9
Launch site
Air Force Eastern Test Range (AFETR)
Object type
Payload
Rocket body
Debris
Shape & HBR
Box + 1 Pan, 10.1 m
Radar Cross Section
13.562 m², Large (>1 m²)

Expand to show TLE details & history
Last TLE update: 2 years ago

TLE from 2 years ago
0 STARLINK-1630
1 46132U 20057R   25025.74142134  .14160816  12291-4  58145-3 0  9992
2 46132  53.0345 318.1210 0009414 195.4595 246.5479 16.42990473245654
Epoch: 2025-01-25T17:47Z
TLE epoch observation values (Epoch: 2025-01-25T17:47:38.803Z)
Latitude
52.4413°
Longitude
2.6062°
Altitude
166.622 km
Speed
7.811 km/s
True Right ascension
02h 19m 12s
True Declination
52° 15' 36"
Sunlit
Object was in partial shadow at epoch
Visualization orbit readout
Latitude
Unknown
Longitude
Unknown
Altitude
Unknown
Speed
Unknown
Apparent Right ascension
Unknown
Apparent Declination
Unknown
Sunlit
N/A
Visualization observer readout
Local Sidereal Time
00:06:26
Azimuth
Unknown
Elevation
Unknown
Doppler factor
Unknown
Orbital elements
Apogee altitude
164.303 km
Perigee altitude
151.996 km
Semi-major axis
6,536.286 km
Eccentricity
0.00094
Inclination
53.0345°
RAAN
318.121°
Arg. of periapsis
195.4595°
True anomaly
246.44898°
Mean anomaly
246.5479°
Eccentric anomaly
246.49844°
Mean motion
4.10721 °/min
Orbital period
87.65 mins
BSTAR
0.00058145
Loading maneuver chart data...
Computing Atmospheric mass density...

Documentation

Showing up to 5 results
|